Weather History for Alamogordo, NM

Change the Weather History Date:

Friday, May 31, 2013

  Actual Average Record
Temperature  
Mean Temperature 76 °F -  
Max Temperature 93 °F 89 °F 100 °F (1969)
Min Temperature 59 °F 59 °F 47 °F (1960)
Cooling Degree Days 11    
Growing Degree Days 26 (Base 50)    
Moisture  
Dew Point 29 °F    
Average Humidity 17    
Maximum Humidity 31    
Minimum Humidity 8    
Precipitation  
Precipitation 0.00 in - - ()
Sea Level Pressure  
Sea Level Pressure 29.92 in    
Wind  
Wind Speed 6 mph (South)    
Max Wind Speed 14 mph    
Max Gust Speed 17 mph    
Visibility 10 miles    
Events      
Averages and records for this station are not official NWS values.
T = Trace of Precipitation, MM = Missing Value Source: NWS Daily Summary

Daily Weather History Graph

Daily Weather History Graph

Search for Another Location

Airport:

Trip Planner

Search our weather history database for the weather conditions in past years. The results will help you decide how hot, cold, wet, or windy it might be!

Date:

Astronomy

May. 31, 2013 Rise Set
Actual Time 5:56 AM MDT 8:06 PM MDT
Civil Twilight 5:28 AM MDT 8:35 PM MDT
Nautical Twilight 4:54 AM MDT 9:09 PM MDT
Astronomical Twilight 4:17 AM MDT 9:46 PM MDT
Moon 12:58 AM MDT (5/31) 12:58 PM MDT (5/31)
Length of Visible Light 15h 06m
Length of Day
14h 10m
Waning Gibbous, 51% of the Moon is Illuminated
May 31
Waning Gibbous
May 31
Last Quarter
Jun 8
New
Jun 16
First Quarter
Jun 23
Full

Hourly Weather History & Observations

Time (MDT) Temp. Dew Point Humidity Pressure Visibility Wind Dir Wind Speed Gust Speed Precip Events Conditions
12:15 AM 73.4 °F 32.0 °F 22% 29.91 in 10.0 mi SSE 8.1 mph - N/A   Clear
12:35 AM 71.6 °F 30.2 °F 22% 29.90 in 10.0 mi SSE 5.8 mph - N/A   Clear
12:55 AM 71.6 °F 32.0 °F 23% 29.90 in 10.0 mi South 4.6 mph - N/A   Clear
1:15 AM 71.6 °F 32.0 °F 23% 29.90 in 10.0 mi South 5.8 mph - N/A   Clear
1:35 AM 71.6 °F 32.0 °F 23% 29.90 in 10.0 mi SSE 5.8 mph - N/A   Clear
1:55 AM 68.0 °F 32.0 °F 26% 29.90 in 10.0 mi SSE 9.2 mph - N/A   Clear
2:15 AM 69.8 °F 32.0 °F 25% 29.91 in 10.0 mi South 6.9 mph - N/A   Clear
2:35 AM 66.2 °F 32.0 °F 28% 29.91 in 10.0 mi SSE 8.1 mph - N/A   Clear
2:55 AM 66.2 °F 32.0 °F 28% 29.91 in 10.0 mi South 5.8 mph - N/A   Clear
3:15 AM 66.2 °F 30.2 °F 26% 29.91 in 10.0 mi SSE 6.9 mph - N/A   Clear
3:35 AM 64.4 °F 30.2 °F 28% 29.91 in 10.0 mi SSE 10.4 mph - N/A   Clear
3:55 AM 68.0 °F 28.4 °F 23% 29.91 in 10.0 mi SSE 10.4 mph - N/A   Clear
4:15 AM 69.8 °F 30.2 °F 23% 29.92 in 10.0 mi South 10.4 mph 16.1 mph N/A   Clear
4:35 AM 68.0 °F 28.4 °F 23% 29.92 in 10.0 mi SSE 9.2 mph - N/A   Clear
4:55 AM 68.0 °F 28.4 °F 23% 29.92 in 10.0 mi SSE 8.1 mph - N/A   Clear
5:15 AM 68.0 °F 28.4 °F 23% 29.93 in 10.0 mi South 6.9 mph - N/A   Clear
5:35 AM 66.2 °F 28.4 °F 24% 29.93 in 10.0 mi South 8.1 mph - N/A   Clear
5:55 AM 66.2 °F 28.4 °F 24% 29.94 in 10.0 mi SSE 3.5 mph - N/A   Clear
6:15 AM 62.6 °F 28.4 °F 27% 29.95 in 10.0 mi Calm Calm - N/A   Clear
6:35 AM 59.0 °F 28.4 °F 31% 29.96 in 10.0 mi NE 3.5 mph - N/A   Clear
6:55 AM 66.2 °F 32.0 °F 28% 29.97 in 10.0 mi Calm Calm - N/A   Clear
7:15 AM 71.6 °F 32.0 °F 23% 29.97 in 10.0 mi Calm Calm - N/A   Clear
7:35 AM 73.4 °F 32.0 °F 22% 29.99 in 10.0 mi Calm Calm - N/A   Clear
7:55 AM 75.2 °F 32.0 °F 21% 29.99 in 10.0 mi SSW 3.5 mph - N/A   Clear
8:15 AM 75.2 °F 32.0 °F 21% 30.00 in 10.0 mi SSE 5.8 mph - N/A   Clear
8:35 AM 77.0 °F 32.0 °F 19% 30.00 in 10.0 mi Calm Calm - N/A   Clear
8:55 AM 78.8 °F 32.0 °F 18% 30.00 in 10.0 mi Calm Calm - N/A   Clear
9:15 AM 80.6 °F 32.0 °F 17% 30.00 in 10.0 mi North 3.5 mph - N/A   Clear
9:35 AM 82.4 °F 32.0 °F 16% 29.99 in 10.0 mi North 6.9 mph - N/A   Clear
9:55 AM 82.4 °F 32.0 °F 16% 29.99 in 10.0 mi NNW 10.4 mph - N/A   Clear
10:15 AM 82.4 °F 32.0 °F 16% 29.99 in 10.0 mi NNW 9.2 mph - N/A   Clear
10:35 AM 82.4 °F 32.0 °F 16% 29.99 in 10.0 mi North 13.8 mph 17.3 mph N/A   Clear
10:55 AM 84.2 °F 32.0 °F 15% 29.99 in 10.0 mi NW 5.8 mph - N/A   Clear
11:15 AM 86.0 °F 32.0 °F 14% 29.99 in 10.0 mi West 6.9 mph - N/A   Clear
11:35 AM 84.2 °F 30.2 °F 14% 29.99 in 10.0 mi Calm Calm - N/A   Clear
11:55 AM 86.0 °F 28.4 °F 12% 29.98 in 10.0 mi WNW 3.5 mph - N/A   Clear
12:15 PM 86.0 °F 28.4 °F 12% 29.98 in 10.0 mi NW 4.6 mph - N/A   Clear
12:35 PM 87.8 °F 28.4 °F 12% 29.97 in 10.0 mi West 10.4 mph - N/A   Clear
12:55 PM 89.6 °F 28.4 °F 11% 29.96 in 10.0 mi NW 8.1 mph 16.1 mph N/A   Clear
1:15 PM 87.8 °F 26.6 °F 11% 29.96 in 10.0 mi SSW 5.8 mph 17.3 mph N/A   Clear
1:35 PM 89.6 °F 26.6 °F 10% 29.95 in 10.0 mi West 12.7 mph 17.3 mph N/A   Clear
1:55 PM 89.6 °F 26.6 °F 10% 29.95 in 10.0 mi NW 8.1 mph - N/A   Clear
2:15 PM 89.6 °F 26.6 °F 10% 29.94 in 10.0 mi WNW 4.6 mph 17.3 mph N/A   Clear
2:35 PM 91.4 °F 26.6 °F 10% 29.93 in 10.0 mi WSW 6.9 mph 17.3 mph N/A   Clear
2:55 PM 91.4 °F 26.6 °F 10% 29.92 in 10.0 mi SSW 5.8 mph - N/A   Clear
3:15 PM 91.4 °F 26.6 °F 10% 29.91 in 10.0 mi SW 6.9 mph - N/A   Clear
3:35 PM 91.4 °F 24.8 °F 9% 29.90 in 10.0 mi WNW 8.1 mph - N/A   Clear
3:55 PM 93.2 °F 26.6 °F 9% 29.89 in 10.0 mi SSW 8.1 mph 16.1 mph N/A   Clear
4:15 PM 93.2 °F 24.8 °F 9% 29.88 in 10.0 mi SSW 9.2 mph - N/A   Clear
4:35 PM 93.2 °F 24.8 °F 9% 29.87 in 10.0 mi NW 4.6 mph 16.1 mph N/A   Clear
4:55 PM 91.4 °F 24.8 °F 9% 29.86 in 10.0 mi SE 3.5 mph - N/A   Clear
5:15 PM 93.2 °F 23.0 °F 8% 29.86 in 10.0 mi SW 5.8 mph - N/A   Clear
5:35 PM 93.2 °F 24.8 °F 9% 29.85 in 10.0 mi West 10.4 mph - N/A   Clear
5:55 PM 93.2 °F 24.8 °F 9% 29.85 in 10.0 mi WSW 3.5 mph - N/A   Clear
6:15 PM 93.2 °F 24.8 °F 9% 29.84 in 10.0 mi Calm Calm - N/A   Clear
6:35 PM 93.2 °F 24.8 °F 9% 29.84 in 10.0 mi NW 3.5 mph - N/A   Clear
6:55 PM 93.2 °F 24.8 °F 9% 29.84 in 10.0 mi SE 5.8 mph - N/A   Clear
7:15 PM 91.4 °F 24.8 °F 9% 29.84 in 10.0 mi ESE 4.6 mph - N/A   Clear
7:35 PM 89.6 °F 26.6 °F 10% 29.84 in 10.0 mi ESE 3.5 mph - N/A   Clear
7:55 PM 84.2 °F 28.4 °F 13% 29.85 in 10.0 mi SE 5.8 mph - N/A   Clear
8:15 PM 82.4 °F 24.8 °F 12% 29.85 in 10.0 mi South 6.9 mph - N/A   Clear
8:35 PM 82.4 °F 26.6 °F 13% 29.86 in 10.0 mi South 6.9 mph - N/A   Clear
8:55 PM 77.0 °F 26.6 °F 16% 29.86 in 10.0 mi SE 8.1 mph - N/A   Clear
9:15 PM 77.0 °F 28.4 °F 17% 29.87 in 10.0 mi SSE 8.1 mph - N/A   Clear
9:35 PM 75.2 °F 28.4 °F 18% 29.88 in 10.0 mi SSE 6.9 mph - N/A   Clear
9:55 PM 77.0 °F 28.4 °F 17% 29.88 in 10.0 mi SSE 6.9 mph - N/A   Clear
10:15 PM 77.0 °F 28.4 °F 17% 29.89 in 10.0 mi SSE 5.8 mph - N/A   Clear
10:35 PM 77.0 °F 30.2 °F 18% 29.90 in 10.0 mi SSE 4.6 mph - N/A   Clear
10:55 PM 78.8 °F 28.4 °F 16% 29.90 in 10.0 mi SE 8.1 mph - N/A   Clear
11:15 PM 75.2 °F 30.2 °F 19% 29.90 in 10.0 mi SE 6.9 mph - N/A   Clear
11:35 PM 77.0 °F 30.2 °F 18% 29.90 in 10.0 mi SSE 5.8 mph - N/A   Clear
11:55 PM 77.0 °F 30.2 °F 18% 29.90 in 10.0 mi SSE 8.1 mph - N/A   Clear